Showing default

IRIDIUM 169, 43926

Orbit data source: Space-Track

IRIDIUM 169, 43926 is a payload satellite owned by Iridium (US) in LEO that was launched on Fri, 11 Jan 2019 UTC via an FALCON 9 launch vehicle from the Air Force Western Test Range (AFWTR). Payloads include a variety of satellites, spacecraft, and rockets equipped with specific instruments for various scientific and technological missions. These include communications satellites like Starlink; space stations such as the ISS; scientific satellites like the Hubble; Earth observation satellites from companies like Planet Labs, Umbra, and HawkEye 360; GPS; miniature CubeSats for education and research; and military/defense satellites.

Loading next visibility...
IRIDIUM 169 details
Identifier
43926, 2019-002E
Orbit
LEO
Last TLE update16 hours ago
Origin
Flag of USIridium (US)
ManufacturerNGIS SSG Gilbert
MissionOperational Commercial Communications
Bus & MotorELITEBUS, Unknown motor
Mass860 kg wet, 700 kg dry
Launch date (UTC)
2019-01-11 (6 years ago)
Launch vehicle
FALCON 9
Launch site
Air Force Western Test Range (AFWTR)
Object type
Payload
Rocket body
Debris
Shape & HBRTrap Box + 2 Pan, 9.4 m
Radar Cross Section14.423 m², Large (>1 m²)

Expand to show TLE details & history

TLE from 16 hours ago
0 IRIDIUM 169
1 43926U 19002E   24348.50965648  .00000691  00000-0  21954-3 0  9990
2 43926  86.4227 255.2723 0002631  43.2644 316.8761 14.38602326311053
Epoch: 2024-12-13T12:13Z
Definitive object data (Epoch: 2024-12-13T12:13:54.319Z)
Latitude
Longitude-10.87864°
Altitude764.806 km
Speed7.473 km/s
True Right ascension17h 01m 05s
True Declination0° 00' 00"
Sunlit
Object was in daylight at TLE epoch
Visualization TLE readout
Latitude-74.78623°
Longitude-24.38149°
Altitude791.258 km
Speed7.457 km/s
Apparent Right ascension15h 24m 00s
Apparent Declination-58° 25' 42"
Sunlit
Object is in daylight
Visualization observer readout
Local Sidereal Time03:07:30
Azimuth186.748° SSW
Elevation-71.301°
Doppler factor1
Orbital elements
Apogee altitude761.956 km
Perigee altitude758.2 km
Semi-major axis7,138.215 km
Eccentricity0.0002631
Inclination86.4227°
RAAN255.2723°
Arg. of periapsis43.2644°
True anomaly316.85549°
Mean anomaly316.8761°
Eccentric anomaly316.86579°
Mean motion3.59881 °/min
BSTAR0.00021954
Orbital period100.03 mins
Loading maneuver chart data...
Loading historical data...
Loading historical data...
Loading historical data...
Loading historical data...
Loading historical data...
Loading historical data...
Loading historical data...

IRIDIUM 169 Visibility forecast

Observer location: undefined°, undefined

Span
Click to sort rows by Start time (UTC) header in descending order
Start Az.
Max El. time (UTC)
Max El. Az.
Max El.
End time (UTC)
End Az.
9 mins2024-12-14 05:29:35.498Z15.354° NNE2024-12-14 05:34:35.498Z91.433° ESE30.236°2024-12-14 05:38:35.498Z146.692° SSE
6 mins2024-12-14 07:11:35.498Z319.487° NNW2024-12-14 07:14:35.498Z274.523° WNW21.748°2024-12-14 07:17:35.498Z232.827° WSW
8 mins2024-12-14 18:24:35.498Z172.681° S2024-12-14 18:27:35.498Z125.061° SE43.754°2024-12-14 18:32:35.498Z6.13° NNE
|